AKDT,Max TemperatureF,Mean TemperatureF,Min TemperatureF,Max Dew PointF,MeanDew PointF,Min DewpointF,Max Humidity, Mean Humidity, Min Humidity, Max Sea Level PressureIn, Mean Sea Level PressureIn, Min Sea Level PressureIn, Max VisibilityMiles, Mean VisibilityMiles, Min VisibilityMiles, Max Wind SpeedMPH, Mean Wind SpeedMPH, Max Gust SpeedMPH,PrecipitationIn, CloudCover, Events, WindDirDegrees
2012-10-1,34,26,18,33,29,16,100,93,79,30.09,30.04,30.02,10,4,1,8,3,,0.35,7,Rain-Snow,43
2012-10-2,45,39,33,43,39,33,100,94,82,30.04,29.98,29.94,10,9,5,7,1,,0.30,8,Rain,187
2012-10-3,48,44,39,43,40,35,100,93,71,30.03,29.98,29.78,10,7,2,10,1,,0.30,7,Rain,43
2012-10-4,55,48,41,48,42,37,100,93,75,29.86,29.71,29.66,10,8,3,10,6,20,0.69,8,Rain,47
2012-10-5,48,39,30,39,34,31,100,76,56,29.91,29.89,29.86,10,9,3,7,2,,0.00,5,Rain-Snow,195
2012-10-6,44,40,33,39,37,32,100,85,68,30.21,30.07,29.88,10,10,7,9,5,,0.08,7,Rain,204
2012-10-7,39,34,28,37,32,28,100,97,93,30.30,30.27,30.23,10,7,0,5,0,,0.00,6,Fog-Rain,222
2012-10-8,39,36,33,36,32,27,100,86,70,30.45,30.35,30.27,10,9,0,9,3,,0.03,6,Fog-Rain,42
2012-10-9,39,34,32,27,22,19,75,61,50,30.50,30.47,30.44,10,10,10,17,10,23,0.00,0,,44
2012-10-10,37,32,28,19,17,15,61,55,46,30.48,30.42,30.32,10,10,10,14,11,21,0.00,0,,48
2012-10-11,37,31,26,15,13,10,58,49,36,30.30,30.09,29.87,10,10,10,12,8,17,0.00,0,,53
2012-10-12,35,24,14,17,13,9,88,59,38,29.86,29.72,29.64,10,9,5,17,7,28,0.00,2,,37
2012-10-13,35,31,27,10,8,6,49,40,33,29.65,29.62,29.57,10,10,8,17,13,28,0.00,0,,29
2012-10-14,32,20,7,17,11,4,88,69,47,29.57,29.50,29.46,10,9,2,10,2,,0.00,2,,1
2012-10-15,28,24,19,14,6,2,72,49,34,29.54,29.51,29.47,10,10,10,14,4,21,0.00,0,,336
2012-10-16,28,22,16,17,11,6,71,59,53,29.84,29.68,29.55,10,10,10,9,4,,0.00,5,,346
2012-10-17,30,28,24,16,15,14,69,59,51,30.05,29.98,29.86,10,10,10,7,3,,0.00,7,,360
2012-10-18,35,24,12,19,15,9,88,64,48,30.25,30.15,30.06,10,10,10,8,2,,0.00,2,,349
2012-10-19,30,20,10,18,13,9,92,81,59,30.48,30.38,30.25,10,10,8,7,3,,0.00,0,,224
2012-10-20,28,20,12,22,19,9,89,81,72,30.61,30.57,30.50,10,9,2,6,1,,0.00,8,,64
2012-10-21,26,22,17,24,17,13,96,88,81,30.59,30.49,30.43,10,7,1,10,6,17,0.00,8,Snow,54
2012-10-22,23,20,16,16,14,13,92,83,72,30.62,30.48,30.41,10,7,2,5,1,,0.02,8,Snow,65
2012-10-23,26,19,12,16,13,10,92,81,66,30.73,30.67,30.63,10,10,10,8,1,,0.00,4,,66
2012-10-24,27,14,3,13,10,0,88,76,55,30.77,30.74,30.72,10,10,10,10,2,,0.00,0,,63
2012-10-25,23,13,3,17,10,0,88,83,72,30.74,30.68,30.59,10,10,10,5,1,,0.00,3,,223
2012-10-26,32,22,12,20,17,11,92,80,61,30.61,30.50,30.42,10,10,10,4,0,,0.00,5,,220
2012-10-27,28,18,8,20,11,5,92,87,72,30.42,30.33,30.26,10,10,10,5,2,,0.00,0,,225
2012-10-28,23,12,3,18,8,1,92,88,82,30.30,30.27,30.19,10,9,2,5,2,,0.00,2,,223
2012-10-29,27,19,12,18,10,5,92,68,43,30.28,30.20,30.14,10,10,10,15,3,24,0.00,4,,308
2012-10-30,26,16,6,15,9,3,91,65,50,30.30,30.29,30.28,10,10,10,14,6,18,0.00,3,,5
2012-10-31,27,14,1,8,3,-2,88,61,37,30.29,30.24,30.20,10,9,6,20,5,32,0.00,0,,47